Weather History for Miami, FL

Change the Weather History Date:

Thursday, March 7, 2013

  Actual Average Record
Temperature  
Mean Temperature 61 °F 72 °F  
Max Temperature 72 °F 80 °F 89 °F (2003)
Min Temperature 49 °F 64 °F 35 °F (1920)
Degree Days  
Heating Degree Days 4 1  
Month to date heating degree days 24 7  
Since 1 July heating degree days 60 123  
Cooling Degree Days 0 7  
Month to date cooling degree days 2 49  
Year to date cooling degree days 481 371  
Growing Degree Days 10 (Base 50)    
Moisture  
Dew Point 39 °F    
Average Humidity 45    
Maximum Humidity 63    
Minimum Humidity 27    
Precipitation  
Precipitation 0.00 in 0.08 in 1.59 in (1917)
Month to date precipitation T 0.58  
Year to date precipitation 2.39 4.45  
Snow  
Snow 0.00 in - - ()
Month to date snowfall 0.0  
Since 1 July snowfall 0.0  
Snow Depth 0.00 in    
Sea Level Pressure  
Sea Level Pressure 30.15 in    
Wind  
Wind Speed 5 mph (NW)    
Max Wind Speed 16 mph    
Max Gust Speed 25 mph    
Visibility 10 miles    
Events      
T = Trace of Precipitation, MM = Missing Value Source: NWS Daily Summary

Daily Weather History Graph

Daily Weather History Graph

Search for Another Location

Airport:

Trip Planner

Search our weather history database for the weather conditions in past years. The results will help you decide how hot, cold, wet, or windy it might be!

Date:

Astronomy

Mar. 07, 2013 Rise Set
Actual Time 6:38 AM EST 6:26 PM EST
Civil Twilight 6:15 AM EST 6:49 PM EST
Nautical Twilight 5:48 AM EST 7:15 PM EST
Astronomical Twilight 5:22 AM EST 7:42 PM EST
Moon 3:15 AM EST (3/7) 2:31 PM EST (3/7)
Length of Visible Light 12h 33m
Length of Day
11h 47m
Waning Crescent, 20% of the Moon is Illuminated
Mar 7
Waning Crescent
Mar 11
New
Mar 19
First Quarter
Mar 27
Full
Apr 3
Last Quarter

Hourly Weather History & Observations

Time (EST) Temp. Dew Point Humidity Pressure Visibility Wind Dir Wind Speed Gust Speed Precip Events Conditions
12:53 AM 54.0 °F 39.9 °F 59% 30.12 in 10.0 mi NW 12.7 mph 18.4 mph N/A   Clear
1:53 AM 53.1 °F 39.9 °F 61% 30.11 in 10.0 mi NW 6.9 mph 17.3 mph N/A   Clear
2:53 AM 52.0 °F 39.9 °F 63% 30.11 in 10.0 mi NW 5.8 mph - N/A   Clear
3:53 AM 51.1 °F 39.9 °F 66% 30.09 in 10.0 mi Variable 6.9 mph - N/A   Clear
4:03 AM 51.8 °F 39.2 °F 62% 30.09 in 10.0 mi NW 6.9 mph - N/A   Partly Cloudy
4:53 AM 50.0 °F 37.0 °F 61% 30.11 in 10.0 mi NNW 8.1 mph - N/A   Clear
5:53 AM 50.0 °F 36.0 °F 59% 30.13 in 10.0 mi NW 8.1 mph - N/A   Clear
6:53 AM 48.9 °F 35.1 °F 59% 30.15 in 10.0 mi NNW 6.9 mph - N/A   Clear
7:53 AM 52.0 °F 35.1 °F 53% 30.17 in 10.0 mi NW 6.9 mph - N/A   Clear
8:53 AM 55.0 °F 35.1 °F 47% 30.19 in 10.0 mi NNW 10.4 mph 16.1 mph N/A   Clear
9:53 AM 59.0 °F 37.9 °F 46% 30.19 in 10.0 mi NW 6.9 mph - N/A   Clear
10:53 AM 63.0 °F 39.9 °F 43% 30.20 in 10.0 mi Variable 3.5 mph - N/A   Clear
11:53 AM 64.9 °F 37.9 °F 37% 30.19 in 10.0 mi NW 6.9 mph - N/A   Clear
12:53 PM 69.1 °F 35.1 °F 29% 30.17 in 10.0 mi NW 4.6 mph - N/A   Clear
1:53 PM 71.1 °F 36.0 °F 28% 30.14 in 10.0 mi Variable 5.8 mph - N/A   Partly Cloudy
2:53 PM 71.1 °F 35.1 °F 27% 30.13 in 10.0 mi NNE 4.6 mph - N/A   Partly Cloudy
3:53 PM 71.1 °F 37.0 °F 29% 30.13 in 10.0 mi Variable 4.6 mph - N/A   Partly Cloudy
4:53 PM 71.1 °F 37.9 °F 30% 30.13 in 10.0 mi Variable 4.6 mph - N/A   Partly Cloudy
5:53 PM 69.1 °F 39.0 °F 33% 30.14 in 10.0 mi NW 4.6 mph - N/A   Partly Cloudy
6:53 PM 64.0 °F 45.0 °F 50% 30.16 in 10.0 mi SSE 4.6 mph - N/A   Clear
7:53 PM 63.0 °F 45.0 °F 52% 30.17 in 10.0 mi Calm Calm - N/A   Clear
8:53 PM 64.0 °F 41.0 °F 43% 30.18 in 10.0 mi Calm Calm - N/A   Clear
9:53 PM 62.1 °F 44.1 °F 52% 30.20 in 10.0 mi West 3.5 mph - N/A   Clear
10:53 PM 60.1 °F 46.9 °F 62% 30.19 in 10.0 mi Calm Calm - N/A   Clear
11:53 PM 60.1 °F 50.0 °F 69% 30.18 in 10.0 mi Calm Calm - N/A   Clear